Weather History for Broken Bow, NE

Change the Weather History Date:

Wednesday, November 21, 2012

  Actual Average Record
Temperature  
Mean Temperature 46 °F 33 °F  
Max Temperature 64 °F 46 °F 71 °F (1974)
Min Temperature 27 °F 20 °F -11 °F (1964)
Degree Days  
Heating Degree Days 19 32  
Month to date heating degree days 545 564  
Cooling Degree Days 0 0  
Month to date cooling degree days 0 0  
Year to date cooling degree days 1077 768  
Moisture  
Dew Point 24 °F    
Average Humidity 50    
Maximum Humidity 78    
Minimum Humidity 22    
Precipitation  
Precipitation 0.00 in 0.03 in 1.00 in (1930)
Sea Level Pressure  
Sea Level Pressure 29.91 in    
Wind  
Wind Speed 6 mph (SSW)    
Max Wind Speed 20 mph    
Max Gust Speed 28 mph    
Visibility 10 miles    
Events      
T = Trace of Precipitation, MM = Missing Value Source: NWS Daily Summary

Daily Weather History Graph

Daily Weather History Graph

Search for Another Location

Airport:

Trip Planner

Search our weather history database for the weather conditions in past years. The results will help you decide how hot, cold, wet, or windy it might be!

Date:

Astronomy

Nov. 21, 2012 Rise Set
Actual Time 7:34 AM CST 5:13 PM CST
Civil Twilight 7:04 AM CST 5:44 PM CST
Nautical Twilight 6:30 AM CST 6:18 PM CST
Astronomical Twilight 5:57 AM CST 6:51 PM CST
Moon 1:35 PM CST (11/21) 12:51 AM CST (11/21)
Length of Visible Light 10h 39m
Length of Day
9h 39m
First Quarter, 62% of the Moon is Illuminated
Nov 21
First Quarter
Nov 28
Full
Dec 6
Last Quarter
Dec 13
New
Dec 19
First Quarter

Hourly Weather History & Observations

Time (CST) Temp. Windchill Dew Point Humidity Pressure Visibility Wind Dir Wind Speed Gust Speed Precip Events Conditions
12:53 AM 42.1 °F 39.2 °F 28.0 °F 58% 30.03 in 10.0 mi SSW 4.6 mph - N/A   Clear
1:53 AM 41.0 °F - 28.9 °F 62% 30.02 in 10.0 mi Calm Calm - N/A   Clear
2:53 AM 37.9 °F - 27.0 °F 65% 30.02 in 10.0 mi Calm Calm - N/A   Clear
3:53 AM 33.1 °F - 25.0 °F 72% 30.02 in 10.0 mi Calm Calm - N/A   Clear
4:53 AM 34.0 °F 31.0 °F 25.0 °F 70% 30.00 in 10.0 mi SSE 3.5 mph - N/A   Clear
5:53 AM 33.1 °F - 25.0 °F 72% 30.02 in 10.0 mi Calm Calm - N/A   Clear
6:53 AM 28.9 °F - 21.9 °F 75% 30.03 in 10.0 mi Calm Calm - N/A   Clear
7:53 AM 30.9 °F 26.2 °F 25.0 °F 79% 30.01 in 10.0 mi South 4.6 mph - N/A   Clear
8:53 AM 41.0 °F 35.2 °F 28.9 °F 62% 29.99 in 10.0 mi SSW 9.2 mph - N/A   Clear
9:53 AM 48.2 °F - 28.4 °F 46% 29.96 in 10.0 mi SSW 10.4 mph - N/A   Clear
10:53 AM 54.0 °F - 27.0 °F 35% 29.95 in 10.0 mi SW 13.8 mph - N/A   Clear
11:53 AM 59.0 °F - 25.0 °F 27% 29.89 in 10.0 mi SSW 12.7 mph - N/A   Clear
12:53 PM 63.0 °F - 26.1 °F 25% 29.87 in 10.0 mi SSW 12.7 mph 26.5 mph N/A   Clear
1:53 PM 63.0 °F - 25.0 °F 24% 29.85 in 10.0 mi South 16.1 mph - N/A   Clear
2:53 PM 64.0 °F - 25.0 °F 23% 29.82 in 10.0 mi South 16.1 mph - N/A   Clear
3:53 PM 63.0 °F - 24.1 °F 23% 29.83 in 10.0 mi SSW 13.8 mph - N/A   Clear
4:53 PM 59.0 °F - 24.1 °F 26% 29.83 in 10.0 mi South 10.4 mph - N/A   Clear
5:53 PM 51.1 °F - 21.9 °F 32% 29.84 in 10.0 mi SSW 6.9 mph - N/A   Clear
6:53 PM 46.0 °F 44.8 °F 21.9 °F 39% 29.85 in 6.0 mi SSW 3.5 mph - N/A   Haze
7:53 PM 42.1 °F - 21.9 °F 45% 29.84 in 10.0 mi Calm Calm - N/A   Clear
8:53 PM 34.0 °F - 18.0 °F 52% 29.82 in 9.0 mi Calm Calm - N/A   Clear
9:53 PM 37.0 °F - 21.0 °F 52% 29.80 in 10.0 mi Calm Calm - N/A   Clear
10:53 PM 30.9 °F 27.5 °F 18.0 °F 59% 29.78 in 10.0 mi NNW 3.5 mph - N/A   Clear
11:53 PM 32.0 °F - 17.1 °F 54% 29.76 in 10.0 mi Calm Calm - N/A   Clear